Location: Newark
(25.0000°N, 73.5000°E)
Time: 12:13:31
(UTC+00:00)

Altair - Pass Details

Date: 10 March 2021
Orbit: 1501 x 1683 km, 47.2° (Epoch: 15 April)

Event Time Altitude Azimuth Distance (km) Brightness Sun altitude
Rises 18:19:12 0° 315° (NW) 4,710 10.4 -64.8°
Enters shadow 18:21:52 - 318° (NW) 3,873 9.9 -65.1°
Reaches altitude 10° 18:22:16 10° 319° (NW) 3,748 - -65.2°
Maximum altitude 18:31:44 65° 40° (NE) 1,738 - -66.3°
Drops below altitude 10° 18:41:33 10° 121° (ESE) 3,883 - -67.2°
Sets 18:44:47 0° 124° (SE) 4,888 - -67.5°
